Marshfield, WI

10:05 PM CDT on April 27, 2017 (GMT -0500)
Marshfield Municipal

Weather History for KMFI - July, 2014

Change the Weather History Date:

Monday, July 28, 2014

  Actual Average Record
Temperature  
Mean Temperature 62 °F -  
Max Temperature 75 °F 80 °F 97 °F (1916)
Min Temperature 51 °F 56 °F 42 °F (1934)
Degree Days  
Heating Degree Days 3    
Growing Degree Days 12 (Base 50)    
Moisture  
Dew Point 52 °F    
Average Humidity 70    
Maximum Humidity 93    
Minimum Humidity 46    
Precipitation  
Precipitation 0.00 in - - ()
Sea Level Pressure  
Sea Level Pressure 30.11 in    
Wind  
Wind Speed 10 mph (NW)    
Max Wind Speed 17 mph    
Max Gust Speed 23 mph    
Visibility 10 miles    
Events      
Averages and records for this station are not official NWS values.
T = Trace of Precipitation, MM = Missing Value Source: NWS Daily Summary

Daily Weather History Graph

Daily Weather History Graph

Search for Another Location

Airport or City:

Trip Planner

Search our weather history database for the weather conditions in past years. The results will help you decide how hot, cold, wet, or windy it might be!

Date:

Astronomy

Jul. 28, 2014 Rise Set
Actual Time 5:42 AM CDT 8:31 PM CDT
Civil Twilight 5:08 AM CDT 9:04 PM CDT
Nautical Twilight 4:25 AM CDT 9:47 PM CDT
Astronomical Twilight 3:35 AM CDT 10:37 PM CDT
Moon 7:30 AM CDT 9:05 PM CDT
Length of Visible Light 15h 56m
Length of Day
14h 48m
Waxing Crescent, 3% of the Moon is Illuminated
Jul 28
Waxing Crescent
Aug 3
First Quarter
Aug 10
Full
Aug 17
Last Quarter
Aug 25
New

Hourly Weather History & Observations

Time (CDT) Temp. Dew Point Humidity Pressure Visibility Wind Dir Wind Speed Gust Speed Precip Events Conditions
12:54 AM 54.0 °F 51.1 °F 90% 30.07 in 10.0 mi NNW 9.2 mph - N/A   Clear
1:54 AM 53.1 °F 51.1 °F 93% 30.08 in 10.0 mi NW 9.2 mph - N/A   Clear
2:54 AM 53.1 °F 50.0 °F 89% 30.08 in 10.0 mi NNW 10.4 mph - N/A   Clear
3:54 AM 52.0 °F 48.9 °F 89% 30.10 in 10.0 mi NNW 9.2 mph - N/A   Clear
4:54 AM 51.1 °F 48.0 °F 89% 30.11 in 10.0 mi NNW 9.2 mph - N/A   Clear
5:54 AM 51.1 °F 48.0 °F 89% 30.13 in 10.0 mi NNW 9.2 mph - N/A   Clear
6:54 AM 53.1 °F 50.0 °F 89% 30.14 in 10.0 mi NNW 10.4 mph - N/A   Clear
7:54 AM 57.0 °F 52.0 °F 83% 30.15 in 10.0 mi NNW 10.4 mph - N/A   Clear
8:54 AM 61.0 °F 52.0 °F 72% 30.15 in 10.0 mi NNW 9.2 mph - N/A   Clear
9:54 AM 64.0 °F 52.0 °F 65% 30.16 in 10.0 mi NW 9.2 mph - N/A   Mostly Cloudy
10:54 AM 69.1 °F 51.1 °F 53% 30.15 in 10.0 mi NNW 16.1 mph - N/A   Overcast
11:54 AM 71.1 °F 52.0 °F 51% 30.15 in 10.0 mi NNW 17.3 mph 20.7 mph N/A   Clear
12:54 PM 71.1 °F 50.0 °F 47% 30.14 in 10.0 mi North 13.8 mph 20.7 mph N/A   Overcast
1:54 PM 72.0 °F 50.0 °F 46% 30.13 in 10.0 mi NW 15.0 mph - N/A   Mostly Cloudy
3:54 PM 73.0 °F 52.0 °F 48% 30.12 in 10.0 mi NW 15.0 mph - N/A   Mostly Cloudy
4:54 PM 73.0 °F 52.0 °F 48% 30.11 in 10.0 mi NNW 13.8 mph 23.0 mph N/A   Partly Cloudy
5:54 PM 72.0 °F 53.1 °F 51% 30.10 in 10.0 mi NW 12.7 mph - N/A   Mostly Cloudy
6:54 PM 70.0 °F 54.0 °F 57% 30.10 in 10.0 mi NW 9.2 mph - N/A   Overcast
7:54 PM 66.9 °F 55.0 °F 66% 30.09 in 10.0 mi NW 4.6 mph - N/A   Overcast
8:54 PM 64.9 °F 55.0 °F 70% 30.09 in 10.0 mi West 3.5 mph - N/A   Overcast
9:54 PM 62.1 °F 54.0 °F 75% 30.09 in 10.0 mi WNW 4.6 mph - N/A   Mostly Cloudy
10:54 PM 61.0 °F 54.0 °F 78% 30.08 in 10.0 mi WNW 6.9 mph - N/A   Scattered Clouds
11:54 PM 60.1 °F 54.0 °F 80% 30.07 in 10.0 mi WNW 6.9 mph - N/A   Mostly Cloudy